Wind_Speed
17 18 18 19 19 20 20 20 21 22 22 23 22 24 24 25 25 26 24 24 23 22 20 20 19 19 19 20 20 20 20 20 20 20 20 20 20 20 21 22 22 22 23 23
18 18 19 19 19 20 20 20 21 22 23 22 23 23 24 25 25 24 23 22 21 20 19 18 19 19 19 19 19 19 19 19 19 19 19 19 19 20 21 21 22 22 22 22
19 19 20 19 19 20 20 20 21 23 22 23 23 24 24 24 24 23 21 20 19 19 18 18 18 17 17 16 16 17 17 18 18 18 17 18 18 19 20 21 22 21 22 22
19 18 19 20 21 21 20 21 22 23 24 24 24 24 23 23 23 22 20 19 18 17 16 16 16 15 15 15 15 15 16 15 16 17 17 17 18 19 19 21 22 22 21 21
19 18 19 19 21 20 20 21 23 23 23 23 23 23 22 21 20 19 17 16 15 14 14 14 13 13 13 13 13 14 14 15 15 16 16 17 18 19 20 21 21 21 21 20
21 20 20 21 22 19 20 22 23 23 22 21 21 20 19 18 17 15 14 14 14 13 13 12 10 11 12 12 12 13 14 15 16 16 16 18 18 19 19 19 20 20 20 20
21 20 20 21 21 20 21 23 23 22 21 20 19 18 16 16 14 14 14 13 12 11 10 10 9 10 11 12 12 12 14 15 15 15 16 18 18 18 18 19 19 20 21 21
20 20 20 21 21 21 22 21 21 20 18 18 17 15 14 14 13 13 14 13 12 10 8 9 9 10 10 11 11 13 14 15 15 16 17 17 18 18 18 18 20 21 22 22
20 20 21 21 22 21 21 20 20 19 17 17 17 14 13 13 13 13 13 12 11 9 8 8 9 9 9 10 12 12 13 14 16 16 17 17 18 18 18 19 19 21 21 22
22 22 22 22 22 22 21 20 19 18 17 16 16 13 12 12 13 12 11 10 9 8 8 8 9 9 9 10 12 13 13 14 15 16 16 17 18 18 18 18 19 20 21 22
23 23 22 21 21 21 20 19 19 17 16 15 14 13 12 12 12 11 10 9 8 8 7 8 8 9 9 11 12 13 13 14 15 16 16 17 17 18 18 19 19 20 21 23
23 23 23 22 21 20 19 18 17 16 15 14 14 13 12 11 10 9 9 8 8 8 8 8 8 9 10 11 12 13 13 14 15 16 17 17 17 18 19 19 19 20 22 23
23 23 23 22 21 18 18 17 16 15 15 14 14 12 11 10 9 9 9 8 8 8 8 8 8 9 9 11 12 13 13 14 16 17 17 18 18 18 19 20 20 21 22 23
23 23 22 21 20 18 17 16 15 14 14 13 13 12 10 9 9 9 8 8 8 8 8 7 8 8 10 12 12 12 13 14 15 16 17 18 19 19 20 21 22 22 23 25
23 23 22 20 19 17 16 15 14 13 13 12 11 10 9 9 9 8 7 7 7 7 7 7 8 9 10 11 11 12 13 14 15 16 17 18 19 20 21 21 22 23 24 26
22 22 20 19 17 16 15 15 14 13 12 11 11 9 9 9 8 7 7 7 7 7 7 8 9 9 10 11 11 13 13 14 15 16 18 19 20 21 22 22 23 24 25 26
21 20 19 17 16 15 15 14 14 13 12 11 10 9 9 8 7 6 6 6 6 6 7 8 8 9 10 10 11 13 13 14 16 17 18 19 20 21 22 23 24 25 26 27
20 19 18 17 16 15 14 13 13 13 12 12 11 10 8 8 6 5 5 6 6 6 7 8 8 9 9 9 11 12 13 14 16 17 19 20 21 22 23 24 24 25 26 27
19 18 17 17 16 15 14 14 13 13 13 12 11 9 8 7 6 5 5 5 5 6 6 7 8 8 9 9 10 12 13 15 16 17 19 20 21 22 23 24 25 26 27 27
19 18 18 17 16 15 15 14 13 13 12 11 10 9 7 7 6 5 5 5 5 6 6 7 7 8 9 9 11 12 13 15 16 18 19 20 21 22 23 24 25 26 27 28
19 18 17 17 16 15 15 14 13 13 12 11 10 9 8 7 6 6 5 5 5 5 6 7 7 8 8 9 11 12 14 15 17 18 19 20 21 22 23 25 26 27 27 28
19 18 18 16 15 15 15 14 14 13 13 12 11 9 8 8 7 6 5 5 5 6 6 7 7 7 8 10 11 13 14 16 17 18 19 20 21 23 24 25 27 27 28 29
20 18 17 16 16 15 15 15 14 14 13 12 11 10 9 9 8 7 6 5 6 6 6 6 6 7 8 10 12 13 14 15 16 18 19 20 22 23 25 26 27 28 29 29
20 19 18 17 17 16 15 15 15 14 13 12 11 11 10 10 9 8 7 6 6 6 6 6 6 7 9 11 12 13 14 15 16 18 19 20 22 24 25 27 27 28 29 29
20 19 18 18 18 17 16 16 15 14 14 13 12 12 11 10 9 8 7 7 6 6 6 5 6 7 9 10 12 13 14 16 17 18 19 20 22 24 26 27 27 28 29 30
21 19 19 18 18 18 17 17 16 15 15 14 13 12 11 10 9 8 8 7 6 6 5 5 6 8 9 10 12 13 15 16 16 17 19 20 22 24 25 27 27 28 30 31
21 20 19 18 18 18 18 17 16 16 15 15 13 12 12 11 10 9 8 7 6 5 5 6 7 8 9 11 12 13 14 15 16 17 19 20 22 24 25 26 27 29 30 31
Wind_Direction
312 310 312 311 306 306 307 306 301 302 302 304 303 303 303 303 303 302 303 303 303 299 298 300 301 303 303 305 308 308 310 311 314 317 320 321 319 320 321 323 324 323 321 321
315 315 314 311 306 307 309 304 300 302 306 307 306 303 303 304 305 305 304 305 305 302 301 299 301 302 304 306 310 311 312 314 317 318 320 323 323 323 324 324 325 325 324 323
314 314 310 309 309 310 307 304 303 306 309 311 308 305 306 307 308 309 309 307 305 304 305 303 303 305 307 311 313 315 314 315 318 321 325 326 326 326 325 326 328 326 327 327
316 315 315 310 306 306 307 303 302 308 309 310 310 309 310 309 309 310 310 310 310 308 310 311 309 309 313 317 319 319 319 320 323 324 327 329 329 329 329 329 330 330 331 332
316 315 313 311 309 308 309 306 304 308 309 310 310 311 311 310 311 311 309 312 314 313 313 314 314 315 319 322 324 321 323 325 329 332 334 332 331 330 330 331 331 332 335 337
316 316 313 310 312 311 308 305 309 311 310 310 313 313 314 314 318 317 318 317 316 316 317 317 316 318 322 326 327 328 327 330 333 334 335 336 335 334 335 335 337 338 338 338
310 308 307 308 311 310 307 306 308 309 311 313 316 317 318 318 320 320 321 321 318 318 319 319 318 324 326 328 332 334 336 337 336 338 338 338 338 339 339 338 340 341 341 340
304 301 303 307 306 305 304 306 308 310 311 311 315 319 320 320 321 324 326 325 323 323 321 317 319 325 326 328 335 339 341 341 340 339 339 339 339 339 339 341 342 343 343 343
297 295 299 301 303 304 304 308 308 309 310 310 312 316 319 322 323 323 323 326 327 326 323 321 323 327 330 334 338 344 344 342 341 341 341 342 341 341 342 344 344 345 345 346
294 292 294 296 299 301 303 305 307 306 307 310 313 312 314 319 322 323 323 328 329 330 329 327 325 331 335 340 345 346 345 342 341 342 343 343 343 344 344 344 345 347 347 345
292 295 295 294 297 299 301 302 302 302 302 306 310 309 313 320 320 320 323 328 332 332 331 328 330 332 339 345 346 344 345 345 345 345 345 344 343 345 345 345 345 346 346 345
291 292 292 292 293 295 297 299 298 298 298 299 305 309 313 318 318 319 324 328 329 326 326 329 331 337 344 347 347 347 348 348 349 348 346 346 345 346 347 346 345 344 343 343
291 290 292 291 294 294 293 295 294 294 295 296 300 302 306 311 315 318 322 327 330 329 329 332 337 340 343 347 346 347 348 350 351 351 350 349 348 346 346 346 345 344 344 344
289 290 290 289 290 290 288 289 289 289 289 292 295 296 300 304 309 311 314 319 323 326 328 331 336 339 341 345 346 347 349 350 351 352 351 350 350 349 348 348 347 345 345 344
288 287 287 287 285 284 283 283 284 283 285 287 289 291 296 302 303 304 307 314 321 327 330 331 333 338 340 346 348 348 347 349 350 351 351 351 350 351 350 349 347 346 345 344
285 284 284 282 279 278 278 277 279 281 282 281 283 287 294 299 297 297 303 312 320 326 329 332 334 336 340 345 347 346 346 347 347 348 349 350 350 351 350 349 348 348 347 347
281 280 279 276 274 273 272 273 274 275 276 276 279 285 289 289 289 291 301 311 317 323 328 332 335 336 339 344 346 347 347 348 349 349 351 353 353 352 351 350 351 350 350 350
276 276 274 271 269 268 269 270 269 269 270 270 277 279 280 278 278 282 296 309 316 321 326 330 334 336 337 340 343 346 348 349 350 351 352 352 352 351 351 352 352 352 351 350
274 273 271 269 265 267 268 266 264 264 265 269 270 268 268 267 266 276 291 303 311 316 323 330 334 336 339 341 343 344 346 348 348 349 351 351 352 354 354 353 353 352 350 350
272 273 270 266 265 264 263 263 263 260 259 261 263 258 254 255 261 272 284 296 305 312 322 328 333 337 339 341 342 344 347 348 349 350 352 353 354 354 354 354 353 351 350 349
267 268 265 262 261 258 258 258 257 256 252 255 256 250 248 249 253 261 274 288 300 309 319 326 330 335 338 342 342 343 346 348 349 350 351 353 354 354 353 353 352 352 352 352
264 265 261 257 255 255 253 252 251 251 250 250 248 245 243 243 247 253 265 278 291 304 313 320 326 333 338 341 341 342 344 346 348 349 350 352 353 353 352 352 352 353 353 353
261 260 256 252 251 249 248 248 246 248 248 246 241 239 239 241 243 245 256 270 283 296 306 315 322 330 335 336 338 340 343 344 346 348 349 351 352 352 352 352 352 353 354 354
257 255 253 249 247 244 245 245 246 244 241 239 236 237 238 236 235 240 252 265 280 289 297 306 314 323 331 335 338 340 342 344 345 347 349 350 351 352 352 352 352 353 354 354
254 251 249 246 243 240 241 242 241 238 234 231 231 232 231 231 234 241 251 263 272 278 288 299 309 319 328 333 337 340 342 343 344 347 348 349 351 352 353 353 353 353 354 354
250 248 245 242 240 238 237 238 235 230 228 226 226 226 227 228 234 243 253 260 264 270 280 296 308 318 325 331 336 340 342 344 345 347 348 349 350 352 353 354 354 354 354 354
246 243 240 238 236 234 233 232 229 225 223 222 222 223 224 228 234 240 247 252 257 265 277 295 309 318 324 331 335 339 341 343 345 347 348 348 350 351 352 353 354 354 354 354
Height
5820 5818 5816 5815 5813 5811 5808 5806 5803 5801 5797 5794 5791 5788 5786 5783 5780 5777 5774 5771 5769 5768 5766 5764 5763 5760 5759 5758 5755 5753 5750 5748 5745 5742 5740 5737 5734 5731 5728 5725 5722 5718 5714 5710
5817 5815 5812 5811 5809 5807 5804 5802 5799 5796 5793 5789 5786 5784 5781 5778 5775 5772 5769 5766 5764 5762 5761 5759 5758 5757 5755 5753 5751 5748 5746 5744 5741 5739 5736 5734 5731 5728 5725 5722 5718 5714 5710 5706
5813 5811 5809 5807 5805 5802 5800 5797 5794 5791 5789 5785 5782 5779 5776 5773 5770 5767 5765 5762 5760 5758 5756 5755 5754 5752 5750 5749 5747 5745 5743 5740 5738 5736 5733 5731 5728 5725 5722 5718 5714 5710 5707 5703
5809 5807 5806 5805 5800 5798 5796 5793 5790 5787 5784 5781 5778 5775 5771 5768 5765 5762 5760 5758 5756 5754 5753 5752 5750 5749 5747 5745 5744 5742 5740 5737 5736 5733 5731 5728 5725 5722 5719 5716 5712 5708 5704 5700
5805 5803 5801 5799 5795 5793 5791 5788 5785 5782 5779 5776 5773 5771 5767 5764 5761 5758 5756 5754 5752 5751 5750 5749 5747 5746 5745 5743 5742 5739 5737 5735 5733 5731 5728 5726 5723 5720 5717 5713 5709 5705 5701 5697
5800 5798 5796 5794 5791 5789 5788 5784 5781 5778 5775 5772 5769 5767 5765 5762 5759 5756 5754 5751 5750 5749 5748 5747 5745 5744 5743 5742 5740 5738 5736 5734 5731 5729 5727 5724 5721 5717 5714 5711 5707 5703 5698 5694
5797 5794 5791 5789 5787 5786 5784 5781 5777 5774 5771 5769 5766 5764 5762 5759 5756 5754 5752 5750 5748 5747 5746 5745 5744 5743 5742 5740 5739 5737 5735 5732 5730 5728 5725 5722 5719 5716 5712 5708 5705 5701 5697 5692
5793 5790 5789 5785 5783 5781 5779 5775 5773 5770 5768 5765 5763 5761 5758 5756 5754 5752 5750 5748 5747 5746 5745 5744 5743 5742 5741 5739 5738 5735 5733 5731 5729 5726 5723 5720 5717 5714 5710 5706 5703 5699 5695 5690
5788 5788 5784 5780 5778 5776 5773 5771 5769 5767 5765 5763 5760 5758 5757 5755 5753 5751 5748 5747 5746 5745 5744 5743 5742 5741 5739 5738 5736 5734 5732 5730 5727 5725 5722 5718 5715 5712 5708 5705 5701 5697 5693 5688
5782 5781 5779 5776 5774 5771 5769 5767 5766 5764 5762 5760 5758 5756 5754 5752 5751 5749 5747 5746 5745 5744 5743 5742 5741 5740 5738 5737 5735 5733 5731 5729 5726 5723 5720 5717 5713 5710 5707 5703 5699 5695 5691 5686
5777 5775 5773 5771 5769 5767 5765 5764 5762 5760 5759 5757 5755 5754 5752 5750 5749 5747 5746 5745 5744 5743 5742 5741 5740 5739 5737 5736 5734 5732 5730 5727 5724 5722 5719 5715 5712 5708 5705 5701 5697 5692 5688 5684
5771 5770 5768 5766 5764 5762 5761 5760 5758 5757 5756 5755 5753 5751 5750 5749 5747 5746 5745 5744 5743 5742 5741 5741 5740 5738 5736 5735 5733 5731 5729 5726 5723 5720 5717 5714 5710 5707 5703 5699 5695 5691 5687 5682
5765 5764 5762 5761 5759 5757 5756 5755 5754 5753 5752 5751 5750 5749 5748 5747 5746 5745 5744 5743 5742 5741 5740 5740 5738 5737 5735 5734 5732 5730 5727 5725 5722 5719 5716 5712 5709 5705 5701 5698 5693 5689 5684 5680
5759 5758 5757 5756 5754 5753 5752 5751 5751 5750 5749 5748 5747 5747 5746 5745 5744 5744 5743 5742 5741 5740 5739 5738 5737 5736 5734 5733 5731 5729 5726 5724 5721 5718 5715 5711 5707 5704 5699 5695 5691 5686 5682 5677
5753 5752 5751 5750 5749 5749 5748 5747 5747 5746 5746 5745 5745 5744 5744 5743 5742 5742 5741 5741 5740 5739 5738 5737 5736 5735 5733 5731 5730 5728 5725 5723 5720 5717 5713 5710 5706 5702 5697 5693 5688 5684 5679 5674
5747 5746 5745 5745 5744 5744 5744 5744 5743 5743 5743 5743 5742 5742 5741 5741 5740 5740 5740 5739 5738 5738 5737 5736 5735 5733 5732 5730 5729 5727 5724 5722 5719 5715 5712 5708 5704 5700 5695 5691 5686 5681 5677 5672
5741 5740 5740 5740 5740 5740 5740 5740 5740 5740 5740 5740 5740 5739 5739 5739 5738 5738 5738 5737 5737 5736 5735 5734 5733 5732 5731 5729 5728 5726 5723 5720 5717 5714 5710 5706 5702 5698 5694 5689 5684 5679 5674 5669
5735 5734 5735 5735 5735 5735 5735 5735 5736 5736 5736 5736 5736 5736 5736 5736 5736 5736 5736 5736 5735 5735 5734 5733 5732 5731 5730 5728 5726 5724 5722 5719 5716 5713 5709 5705 5701 5697 5692 5687 5683 5678 5673 5667
5729 5730 5730 5730 5730 5731 5731 5731 5732 5732 5733 5733 5733 5733 5733 5734 5734 5734 5734 5734 5734 5734 5733 5732 5731 5730 5728 5727 5725 5723 5721 5718 5715 5711 5708 5704 5699 5695 5691 5686 5681 5676 5671 5666
5724 5724 5725 5725 5726 5726 5727 5728 5728 5729 5729 5730 5730 5730 5731 5731 5732 5732 5733 5733 5732 5732 5731 5731 5729 5728 5727 5726 5724 5722 5719 5716 5713 5710 5706 5702 5698 5694 5690 5685 5680 5675 5670 5664
5719 5719 5720 5721 5721 5722 5723 5723 5724 5725 5726 5726 5727 5727 5728 5729 5730 5730 5731 5731 5731 5730 5730 5729 5728 5727 5726 5724 5723 5720 5718 5715 5712 5709 5705 5701 5697 5693 5689 5684 5679 5673 5668 5662
5714 5714 5715 5716 5717 5718 5718 5719 5720 5721 5722 5723 5724 5725 5726 5727 5728 5728 5729 5729 5729 5729 5728 5727 5726 5725 5724 5723 5721 5719 5716 5714 5711 5707 5704 5700 5696 5692 5687 5682 5677 5672 5666 5660
5708 5709 5710 5711 5712 5713 5715 5716 5717 5718 5719 5720 5721 5722 5724 5725 5725 5726 5727 5727 5727 5727 5726 5726 5725 5724 5723 5721 5719 5717 5715 5712 5709 5706 5702 5699 5694 5690 5686 5681 5675 5670 5665 5659
5702 5703 5705 5706 5707 5709 5711 5712 5713 5714 5716 5717 5718 5720 5721 5722 5723 5724 5725 5725 5725 5725 5725 5724 5723 5722 5721 5720 5718 5716 5713 5711 5708 5704 5701 5697 5693 5689 5684 5679 5674 5669 5663 5657
5696 5697 5699 5701 5702 5704 5706 5708 5709 5710 5712 5714 5715 5717 5718 5719 5721 5722 5722 5723 5723 5722 5722 5722 5721 5721 5719 5718 5716 5714 5712 5709 5706 5703 5699 5696 5692 5688 5683 5678 5673 5667 5662 5656
5690 5692 5694 5695 5697 5699 5701 5703 5705 5707 5708 5710 5712 5714 5715 5717 5718 5719 5719 5720 5720 5720 5720 5720 5719 5718 5717 5716 5714 5712 5710 5707 5704 5701 5698 5694 5690 5686 5681 5676 5671 5666 5660 5655
5683 5685 5687 5690 5692 5694 5696 5698 5701 5703 5705 5707 5709 5711 5712 5714 5715 5716 5717 5717 5718 5718 5718 5718 5717 5716 5715 5714 5712 5710 5708 5705 5702 5699 5696 5693 5689 5684 5680 5675 5670 5665 5659 5653